Location: Ailly
(50.0793°N, 1.9944°E)
Time: 11:52:26
(UTC+00:00)

GEOS 3 Rocket - Pass Details

Date: 15 January 2026
Orbit: 768 x 845 km, 115.0° (Epoch: 16 February)

Event Time Altitude Azimuth Distance (km) Brightness Sun altitude
Rises 04:31:07 0° 121° (ESE) 3,320 7.6 -30.4°
Reaches altitude 10° 04:33:25 10° 117° (ESE) 2,402 6.8 -30.0°
Maximum altitude 04:38:32 57° 40° (NE) 970 4.1 -29.2°
Enters shadow 04:39:01 55° 17° (NNE) 995 4.0 -29.1°
